Blossom, TX

8:46 AM CST on February 06, 2016 (GMT -0600)
Cox

Weather History for KPRX - August, 2014

Change the Weather History Date:

Thursday, August 21, 2014

  Actual Average Record
Temperature  
Mean Temperature 83 °F -  
Max Temperature 93 °F 90 °F 102 °F (2006)
Min Temperature 73 °F 69 °F 66 °F (1999)
Cooling Degree Days 18    
Growing Degree Days 33 (Base 50)    
Moisture  
Dew Point 68 °F    
Average Humidity 62    
Maximum Humidity 83    
Minimum Humidity 46    
Precipitation  
Precipitation 0.00 in - - ()
Sea Level Pressure  
Sea Level Pressure 30.03 in    
Wind  
Wind Speed 10 mph (South)    
Max Wind Speed 18 mph    
Max Gust Speed 24 mph    
Visibility 10 miles    
Events      
Averages and records for this station are not official NWS values.
T = Trace of Precipitation, MM = Missing Value Source: NWS Daily Summary

Daily Weather History Graph

Daily Weather History Graph

Search for Another Location

Airport or City:

Trip Planner

Search our weather history database for the weather conditions in past years. The results will help you decide how hot, cold, wet, or windy it might be!

Date:

Astronomy

Aug. 21, 2014 Rise Set
Actual Time 6:48 AM CDT 8:01 PM CDT
Civil Twilight 6:22 AM CDT 8:26 PM CDT
Nautical Twilight 5:51 AM CDT 8:57 PM CDT
Astronomical Twilight 5:19 AM CDT 9:29 PM CDT
Moon 3:24 AM CDT (8/21) 5:26 PM CDT (8/21)
Length of Visible Light 14h 04m
Length of Day
13h 12m
Waning Crescent, 13% of the Moon is Illuminated
Aug 21
Waning Crescent
Aug 25
New
Sep 2
First Quarter
Sep 8
Full
Sep 15
Last Quarter

Hourly Weather History & Observations

Time (CDT) Temp. Heat Index Dew Point Humidity Pressure Visibility Wind Dir Wind Speed Gust Speed Precip Events Conditions
12:15 AM 78.8 °F - 64.4 °F 61% 30.01 in 10.0 mi South 8.1 mph - N/A   Clear
12:35 AM 77.0 °F - 64.4 °F 65% 30.01 in 10.0 mi SSE 8.1 mph - N/A   Clear
12:55 AM 77.0 °F - 64.4 °F 65% 30.01 in 10.0 mi SSE 8.1 mph - N/A   Clear
1:15 AM 75.2 °F - 64.4 °F 69% 30.01 in 10.0 mi SSE 8.1 mph - N/A   Clear
1:35 AM 75.2 °F - 64.4 °F 69% 30.01 in 10.0 mi SSE 8.1 mph - N/A   Clear
1:55 AM 75.2 °F - 64.4 °F 69% 30.00 in 10.0 mi SSE 6.9 mph - N/A   Clear
2:15 AM 75.2 °F - 64.4 °F 69% 30.00 in 10.0 mi SE 8.1 mph - N/A   Clear
2:35 AM 75.2 °F - 64.4 °F 69% 30.00 in 10.0 mi SSE 8.1 mph - N/A   Clear
2:55 AM 75.2 °F - 64.4 °F 69% 30.01 in 10.0 mi SSE 8.1 mph - N/A   Clear
3:15 AM 73.4 °F - 66.2 °F 78% 30.00 in 10.0 mi SSE 8.1 mph - N/A   Clear
3:35 AM 73.4 °F - 66.2 °F 78% 30.00 in 10.0 mi SSE 6.9 mph - N/A   Clear
3:55 AM 73.4 °F - 66.2 °F 78% 30.01 in 10.0 mi SSE 8.1 mph - N/A   Clear
4:15 AM 73.4 °F - 66.2 °F 78% 30.01 in 10.0 mi SSE 10.4 mph - N/A   Clear
4:35 AM 73.4 °F - 66.2 °F 78% 30.01 in 10.0 mi SSE 8.1 mph - N/A   Clear
4:55 AM 73.4 °F - 66.2 °F 78% 30.01 in 10.0 mi SE 8.1 mph - N/A   Clear
5:15 AM 73.4 °F - 66.2 °F 78% 30.01 in 10.0 mi SE 8.1 mph - N/A   Clear
5:35 AM 73.4 °F - 66.2 °F 78% 30.02 in 10.0 mi SSE 8.1 mph - N/A   Clear
5:55 AM 73.4 °F - 66.2 °F 78% 30.03 in 10.0 mi SSE 9.2 mph - N/A   Clear
6:15 AM 73.4 °F - 66.2 °F 78% 30.04 in 10.0 mi SSE 6.9 mph - N/A   Clear
6:35 AM 73.4 °F - 66.2 °F 78% 30.04 in 10.0 mi SSE 6.9 mph - N/A   Clear
6:55 AM 73.4 °F - 66.2 °F 78% 30.05 in 10.0 mi SSE 6.9 mph - N/A   Clear
7:15 AM 73.4 °F - 66.2 °F 78% 30.06 in 10.0 mi SSE 6.9 mph - N/A   Clear
7:35 AM 73.4 °F - 66.2 °F 78% 30.07 in 9.0 mi SSE 8.1 mph - N/A   Partly Cloudy
7:55 AM 75.2 °F - 68.0 °F 78% 30.07 in 10.0 mi South 8.1 mph - N/A   Mostly Cloudy
8:15 AM 75.2 °F - 69.8 °F 83% 30.08 in 10.0 mi South 9.2 mph - N/A   Overcast
8:35 AM 77.0 °F - 69.8 °F 78% 30.08 in 10.0 mi South 10.4 mph - N/A   Overcast
8:55 AM 78.8 °F - 69.8 °F 74% 30.08 in 10.0 mi South 11.5 mph - N/A   Mostly Cloudy
9:15 AM 78.8 °F - 69.8 °F 74% 30.08 in 10.0 mi South 12.7 mph - N/A   Overcast
9:35 AM 80.6 °F 83.9 °F 69.8 °F 70% 30.08 in 10.0 mi SSW 13.8 mph 18.4 mph N/A   Overcast
9:55 AM 80.6 °F 84.6 °F 71.6 °F 74% 30.08 in 10.0 mi SSW 12.7 mph - N/A   Overcast
10:15 AM 82.4 °F 87.2 °F 71.6 °F 70% 30.08 in 10.0 mi SSW 15.0 mph 21.9 mph N/A   Mostly Cloudy
10:35 AM 82.4 °F 87.2 °F 71.6 °F 70% 30.08 in 10.0 mi SSW 17.3 mph 24.2 mph N/A   Mostly Cloudy
10:55 AM 84.2 °F 89.6 °F 71.6 °F 66% 30.08 in 10.0 mi SW 13.8 mph 18.4 mph N/A   Overcast
11:15 AM 86.0 °F 91.8 °F 71.6 °F 62% 30.07 in 10.0 mi SW 18.4 mph - N/A   Mostly Cloudy
11:35 AM 87.8 °F 93.8 °F 71.6 °F 58% 30.07 in 10.0 mi SW 17.3 mph 24.2 mph N/A   Scattered Clouds
11:55 AM 87.8 °F 93.8 °F 71.6 °F 58% 30.07 in 10.0 mi SSW 11.5 mph 23.0 mph N/A   Scattered Clouds
12:15 PM 87.8 °F 93.8 °F 71.6 °F 58% 30.07 in 10.0 mi SSW 15.0 mph 20.7 mph N/A   Mostly Cloudy
12:35 PM 89.6 °F 96.2 °F 71.6 °F 55% 30.06 in 10.0 mi SSW 16.1 mph - N/A   Mostly Cloudy
12:55 PM 89.6 °F 94.7 °F 69.8 °F 52% 30.06 in 10.0 mi SSW 15.0 mph 23.0 mph N/A   Mostly Cloudy
1:15 PM 89.6 °F 94.7 °F 69.8 °F 52% 30.05 in 10.0 mi South 10.4 mph 23.0 mph N/A   Scattered Clouds
1:35 PM 91.4 °F 96.8 °F 69.8 °F 49% 30.04 in 10.0 mi South 15.0 mph 20.7 mph N/A   Mostly Cloudy
1:55 PM 91.4 °F 96.8 °F 69.8 °F 49% 30.04 in 10.0 mi SSW 11.5 mph - N/A   Mostly Cloudy
2:15 PM 91.4 °F 98.4 °F 71.6 °F 52% 30.04 in 10.0 mi South 12.7 mph 17.3 mph N/A   Mostly Cloudy
2:35 PM 91.4 °F 96.8 °F 69.8 °F 49% 30.03 in 10.0 mi SSW 11.5 mph 16.1 mph N/A   Mostly Cloudy
2:55 PM 93.2 °F 100.5 °F 71.6 °F 49% 30.02 in 10.0 mi SSW 9.2 mph 17.3 mph N/A   Scattered Clouds
3:15 PM 91.4 °F 96.8 °F 69.8 °F 49% 30.02 in 10.0 mi SSW 12.7 mph 18.4 mph N/A   Scattered Clouds
3:35 PM 91.4 °F 96.8 °F 69.8 °F 49% 30.01 in 10.0 mi South 15.0 mph 19.6 mph N/A   Scattered Clouds
3:55 PM 93.2 °F 98.8 °F 69.8 °F 46% 30.00 in 10.0 mi SSW 11.5 mph - N/A   Partly Cloudy
4:15 PM 93.2 °F 98.8 °F 69.8 °F 46% 30.00 in 10.0 mi South 9.2 mph - N/A   Scattered Clouds
4:35 PM 93.2 °F 98.8 °F 69.8 °F 46% 30.00 in 10.0 mi South 10.4 mph 16.1 mph N/A   Partly Cloudy
4:55 PM 93.2 °F 98.8 °F 69.8 °F 46% 29.99 in 10.0 mi South 10.4 mph - N/A   Partly Cloudy
5:15 PM 93.2 °F 98.8 °F 69.8 °F 46% 29.99 in 10.0 mi South 13.8 mph - N/A   Clear
5:35 PM 93.2 °F 98.8 °F 69.8 °F 46% 29.99 in 10.0 mi South 13.8 mph - N/A   Clear
5:55 PM 93.2 °F 98.8 °F 69.8 °F 46% 29.99 in 10.0 mi South 12.7 mph 19.6 mph N/A   Clear
6:15 PM 93.2 °F 98.8 °F 69.8 °F 46% 29.99 in 10.0 mi SSE 10.4 mph 17.3 mph N/A   Clear
6:35 PM 91.4 °F 95.4 °F 68.0 °F 46% 29.99 in 10.0 mi South 11.5 mph - N/A   Clear
6:55 PM 91.4 °F 95.4 °F 68.0 °F 46% 29.99 in 10.0 mi South 10.4 mph - N/A   Clear
7:15 PM 89.6 °F 93.4 °F 68.0 °F 49% 29.99 in 10.0 mi South 8.1 mph - N/A   Clear
7:35 PM 87.8 °F 91.4 °F 68.0 °F 52% 29.99 in 10.0 mi SSE 9.2 mph - N/A   Clear
7:55 PM 87.8 °F 90.4 °F 66.2 °F 49% 29.99 in 10.0 mi SSE 9.2 mph - N/A   Clear
8:15 PM 86.0 °F 88.2 °F 66.2 °F 51% 30.00 in 10.0 mi SSE 9.2 mph - N/A   Clear
8:35 PM 84.2 °F 86.6 °F 66.2 °F 55% 30.00 in 10.0 mi SSE 8.1 mph - N/A   Clear
8:55 PM 84.2 °F 86.6 °F 66.2 °F 55% 30.00 in 10.0 mi SSE 9.2 mph - N/A   Clear
9:15 PM 82.4 °F 84.6 °F 66.2 °F 58% 30.01 in 10.0 mi SSE 8.1 mph - N/A   Clear
9:35 PM 82.4 °F 84.6 °F 66.2 °F 58% 30.01 in 10.0 mi SSE 9.2 mph - N/A   Clear
9:55 PM 82.4 °F 84.6 °F 66.2 °F 58% 30.02 in 10.0 mi SSE 9.2 mph - N/A   Clear
10:15 PM 82.4 °F 84.6 °F 66.2 °F 58% 30.02 in 10.0 mi SSE 8.1 mph - N/A   Clear
10:35 PM 82.4 °F 84.6 °F 66.2 °F 58% 30.02 in 10.0 mi SSE 9.2 mph - N/A   Clear
10:55 PM 82.4 °F 84.6 °F 66.2 °F 58% 30.02 in 10.0 mi SSE 9.2 mph - N/A   Clear
11:15 PM 80.6 °F 82.7 °F 66.2 °F 61% 30.02 in 10.0 mi SSE 8.1 mph - N/A   Clear
11:35 PM 80.6 °F 82.7 °F 66.2 °F 61% 30.02 in 10.0 mi SSE 6.9 mph - N/A   Clear
11:55 PM 80.6 °F 82.7 °F 66.2 °F 61% 30.02 in 10.0 mi SSE 6.9 mph - N/A   Clear